GW3296 Weather Reports


time (UTC)temp
C
wind
direction
speed
KPH
gust
KPH
rain 1hr
cm
rain 24hr
cm
rain mn
cm
humidity
%
barometer
mb
20260504081824 15 171 4.8 9.7 0.00 0.00 0.00 78 1008.0
20260504081321 15 159 3.2 4.8 0.00 0.00 0.00 77 1008.2
20260504080816 15 174 3.2 4.8 0.00 0.00 0.00 78 1008.2
20260504080314 15 174 1.6 4.8 0.00 0.00 0.00 78 1008.1
20260504070241 14 172 1.6 1.6 0.00 0.00 0.00 77 1008.5
20260504060202 15 143 4.8 4.8 0.00 0.00 0.00 73 1009.4
20260504050629 16 152 3.2 4.8 0.00 0.00 0.00 68 1009.1
20260504050126 16 152 3.2 3.2 0.00 0.00 0.00 68 1009.3
20260504045623 16 181 0.0 1.6 0.00 0.00 0.00 68 1008.9
20260504045118 16 166 1.6 1.6 0.00 0.00 0.00 68 1008.9
20260504044616 16 155 1.6 3.2 0.00 0.00 0.00 67 1009.2
20260504044113 16 157 1.6 3.2 0.00 0.00 0.00 67 1009.2
20260504043610 16 156 3.2 3.2 0.00 0.00 0.00 67 1009.4
20260504043107 16 163 0.0 0.0 0.00 0.00 0.00 68 1009.5
20260504042604 17 154 1.6 3.2 0.00 0.00 0.00 66 1009.7
20260504042101 17 167 0.0 1.6 0.00 0.00 0.00 66 1009.9
20260504041557 17 157 1.6 3.2 0.00 0.00 0.00 65 1010.0
20260504041053 17 154 3.2 3.2 0.00 0.00 0.00 65 1010.2
20260504040551 17 175 1.6 1.6 0.00 0.00 0.00 65 1010.0
20260504040047 17 203 1.6 1.6 0.00 0.00 0.00 66 1009.8
20260504035544 17 155 3.2 4.8 0.00 0.00 0.00 65 1009.9
20260504035040 17 151 3.2 4.8 0.00 0.00 0.00 66 1010.1
20260504034538 17 162 1.6 3.2 0.00 0.00 0.00 67 1010.2
20260504034035 17 181 0.0 1.6 0.00 0.00 0.00 68 1010.3
20260504033533 17 216 0.0 1.6 0.00 0.00 0.00 68 1010.0
20260504033030 17 157 1.6 1.6 0.00 0.00 0.00 67 1010.2
20260504032527 17 185 0.0 0.0 0.00 0.00 0.00 68 1010.1
20260504032024 17 196 0.0 1.6 0.00 0.00 0.00 68 1010.0
20260504031521 17 163 1.6 3.2 0.00 0.00 0.00 67 1010.0
20260504031017 17 188 0.0 1.6 0.00 0.00 0.00 71 1010.3
20260504030515 16 162 0.0 3.2 0.00 0.00 0.00 69 1010.4
20260504030010 16 76 1.6 3.2 0.00 0.00 0.00 71 1010.5
20260504025508 16 212 1.6 1.6 0.00 0.00 0.00 72 1010.5
20260504025004 17 173 0.0 1.6 0.00 0.00 0.00 71 1010.2
20260504024502 17 136 0.0 1.6 0.00 0.00 0.00 70 1010.4
20260504023959 17 212 0.0 1.6 0.00 0.00 0.00 70 1010.5
20260504023455 17 172 0.0 0.0 0.00 0.00 0.00 69 1010.2
20260504022950 17 169 1.6 1.6 0.00 0.00 0.00 69 1010.1
20260504022447 17 161 1.6 1.6 0.00 0.00 0.00 69 1009.9
20260504021944 17 155 0.0 0.0 0.00 0.00 0.00 69 1010.1
20260504021441 17 152 0.0 1.6 0.00 0.00 0.00 69 1010.2
20260504020938 17 169 0.0 0.0 0.00 0.00 0.00 68 1010.1
20260504020434 17 166 0.0 1.6 0.00 0.00 0.00 68 1010.1
20260504015931 17 183 0.0 0.0 0.00 0.00 0.00 67 1010.2
20260504015427 17 183 0.0 1.6 0.00 0.00 0.00 67 1010.2
20260504014923 17 252 1.6 3.2 0.00 0.00 0.00 67 1010.3
20260504014420 18 117 1.6 1.6 0.00 0.00 0.00 65 1009.9
20260504013916 18 171 1.6 1.6 0.00 0.00 0.00 64 1009.8
20260504013415 18 171 1.6 1.6 0.00 0.00 0.00 64 1009.7
20260504012911 18 151 0.0 1.6 0.00 0.00 0.00 64 1009.9
20260504012409 18 147 0.0 0.0 0.00 0.00 0.00 61 1009.8
20260504011906 18 166 0.0 0.0 0.00 0.00 0.00 59 1009.6
20260504011403 19 194 0.0 0.0 0.00 0.00 0.00 58 1009.5
20260504010859 19 181 0.0 1.6 0.00 0.00 0.00 57 1009.7
20260504010354 19 171 1.6 1.6 0.00 0.00 0.00 57 1009.5
20260504005845 20 202 0.0 0.0 0.00 0.00 0.00 54 1009.7
20260504005342 20 209 0.0 0.0 0.00 0.00 0.00 53 1009.4
20260504004839 20 21 3.2 3.2 0.00 0.00 0.00 54 1009.5
20260504004337 20 194 0.0 0.0 0.00 0.00 0.00 51 1009.5
20260504003833 21 238 0.0 4.8 0.00 0.00 0.00 50 1009.6
20260504003330 21 264 4.8 4.8 0.00 0.00 0.00 49 1009.7
20260504002827 21 219 0.0 1.6 0.00 0.00 0.00 48 1009.5
20260504002324 21 231 3.2 3.2 0.00 0.00 0.00 48 1009.4
20260504001822 21 161 0.0 3.2 0.00 0.00 0.00 49 1009.4
20260504001319 21 177 1.6 3.2 0.00 0.00 0.00 48 1009.2
20260504000815 21 176 1.6 4.8 0.00 0.00 0.00 47 1009.2
20260504000312 21 261 4.8 9.7 0.00 0.00 0.00 47 1009.7
20260503235810 21 170 0.0 8.0 0.00 0.00 0.00 46 1009.5
20260503235307 22 253 4.8 11.3 0.00 0.00 0.00 46 1009.7
20260503234805 22 247 3.2 11.3 0.00 0.00 0.00 45 1009.6
20260503234303 22 239 1.6 1.6 0.00 0.00 0.00 45 1009.8
20260503233800 22 267 4.8 12.9 0.00 0.00 0.00 44 1009.9
20260503233255 22 268 3.2 9.7 0.00 0.00 0.00 44 1009.9
20260503232753 22 169 1.6 4.8 0.00 0.00 0.00 43 1009.6
20260503232250 22 177 4.8 4.8 0.00 0.00 0.00 43 1009.6
20260503231748 22 174 3.2 4.8 0.00 0.00 0.00 42 1009.7
20260503231245 22 202 1.6 12.9 0.00 0.00 0.00 41 1009.9
20260503230740 22 158 4.8 14.5 0.00 0.00 0.00 41 1009.6
20260503230238 22 156 8.0 11.3 0.00 0.00 0.00 41 1009.5
20260503225735 22 163 11.3 16.1 0.00 0.00 0.00 41 1009.3
20260503225235 22 156 4.8 14.5 0.00 0.00 0.00 40 1009.1
20260503224732 22 165 8.0 14.5 0.00 0.00 0.00 40 1009.2
20260503224230 22 169 11.3 25.7 0.00 0.00 0.00 39 1009.4
20260503223727 22 217 11.3 22.5 0.00 0.00 0.00 39 1009.7
20260503223225 22 202 3.2 16.1 0.00 0.00 0.00 40 1010.0
20260503222721 22 190 8.0 14.5 0.00 0.00 0.00 39 1010.0
20260503222219 22 206 6.4 14.5 0.00 0.00 0.00 40 1009.8
20260503221718 22 115 14.5 22.5 0.00 0.00 0.00 39 1010.0
20260503221215 22 163 12.9 20.9 0.00 0.00 0.00 39 1009.5
20260503220711 22 168 8.0 22.5 0.00 0.00 0.00 39 1009.8
20260503220208 22 152 11.3 20.9 0.00 0.00 0.00 38 1010.1
20260503215705 22 157 4.8 16.1 0.00 0.00 0.00 39 1009.8
20260503215202 22 158 11.3 16.1 0.00 0.00 0.00 39 1010.0
20260503214700 22 141 11.3 20.9 0.00 0.00 0.00 38 1010.1
20260503214155 22 162 12.9 17.7 0.00 0.00 0.00 38 1010.1
20260503213649 22 182 9.7 24.1 0.00 0.00 0.00 37 1010.4
20260503213146 22 233 9.7 24.1 0.00 0.00 0.00 37 1010.2
20260503212643 22 192 11.3 25.7 0.00 0.00 0.00 37 1010.2
20260503212140 22 177 14.5 22.5 0.00 0.00 0.00 37 1010.4
20260503211638 22 175 14.5 33.8 0.00 0.00 0.00 37 1010.6
20260503211133 22 195 11.3 14.5 0.00 0.00 0.00 37 1010.6
20260503210630 22 161 8.0 17.7 0.00 0.00 0.00 37 1010.7
20260503210127 21 186 6.4 24.1 0.00 0.00 0.00 37 1010.9
20260503205622 22 218 6.4 22.5 0.00 0.00 0.00 38 1010.9
20260503205119 21 166 11.3 20.9 0.00 0.00 0.00 37 1010.9
20260503204616 21 156 6.4 25.7 0.00 0.00 0.00 38 1010.7
20260503204113 21 160 8.0 16.1 0.00 0.00 0.00 38 1010.9
20260503203610 21 159 12.9 29.0 0.00 0.00 0.00 38 1011.2
20260503203108 20 162 14.5 24.1 0.00 0.00 0.00 38 1011.2
20260503202605 20 159 11.3 25.7 0.00 0.00 0.00 38 1011.7
20260503202103 20 159 8.0 27.4 0.00 0.00 0.00 40 1011.4
20260503201600 20 152 12.9 32.2 0.00 0.00 0.00 39 1011.6
20260503201057 20 160 12.9 20.9 0.00 0.00 0.00 40 1011.6
20260503200548 20 179 17.7 29.0 0.00 0.00 0.00 39 1011.5
20260503200044 20 154 17.7 24.1 0.00 0.00 0.00 39 1011.8
20260503195542 20 168 16.1 24.1 0.00 0.00 0.00 40 1011.7
20260503195038 19 125 16.1 25.7 0.00 0.00 0.00 40 1011.9
20260503194536 19 157 17.7 29.0 0.00 0.00 0.00 41 1012.1
20260503194035 19 188 11.3 25.7 0.00 0.00 0.00 40 1012.1
20260503193533 19 189 8.0 20.9 0.00 0.00 0.00 42 1012.1
20260503193028 18 160 9.7 25.7 0.00 0.00 0.00 43 1011.8
20260503192524 19 157 9.7 32.2 0.00 0.00 0.00 43 1011.9
20260503192020 19 182 19.3 27.4 0.00 0.00 0.00 42 1012.2
20260503191517 18 181 11.3 25.7 0.00 0.00 0.00 43 1012.6
20260503191014 18 201 16.1 22.5 0.00 0.00 0.00 42 1012.7
20260503190510 18 221 16.1 22.5 0.00 0.00 0.00 43 1012.9
20260503190008 19 158 16.1 29.0 0.00 0.00 0.00 42 1012.7
20260503185503 19 158 16.1 25.7 0.00 0.00 0.00 41 1012.5
20260503184958 18 176 20.9 33.8 0.00 0.00 0.00 42 1012.6
20260503184455 18 159 17.7 32.2 0.00 0.00 0.00 43 1012.5
20260503183951 18 154 19.3 29.0 0.00 0.00 0.00 42 1012.7
20260503183448 18 150 20.9 25.7 0.00 0.00 0.00 44 1012.8
20260503182944 18 160 9.7 17.7 0.00 0.00 0.00 43 1012.8
20260503182443 18 120 11.3 22.5 0.00 0.00 0.00 45 1012.7
20260503181941 18 172 16.1 32.2 0.00 0.00 0.00 46 1013.1
20260503181438 17 139 17.7 25.7 0.00 0.00 0.00 45 1013.5
20260503180933 17 181 17.7 29.0 0.00 0.00 0.00 45 1013.7
20260503180432 17 171 8.0 22.5 0.00 0.00 0.00 47 1013.7
20260503175928 17 127 14.5 32.2 0.00 0.00 0.00 45 1014.0
20260503175427 17 178 6.4 20.9 0.00 0.00 0.00 45 1014.1
20260503174922 17 202 17.7 35.4 0.00 0.00 0.00 44 1014.2
20260503174421 17 174 22.5 41.8 0.00 0.00 0.00 46 1014.1
20260503173920 17 168 12.9 27.4 0.00 0.00 0.00 46 1014.0
20260503173417 16 129 17.7 40.2 0.00 0.00 0.00 47 1014.1
20260503172914 16 164 14.5 27.4 0.00 0.00 0.00 48 1014.3
20260503172411 17 148 19.3 32.2 0.00 0.00 0.00 45 1014.9
20260503171907 17 184 12.9 24.1 0.00 0.00 0.00 45 1015.1
20260503171404 17 156 11.3 32.2 0.00 0.00 0.00 46 1015.4
20260503170902 17 182 20.9 29.0 0.00 0.00 0.00 47 1015.4
20260503170358 17 185 22.5 29.0 0.00 0.00 0.00 48 1015.8
20260503150750 14 163 8.0 14.5 0.00 0.00 0.00 55 1017.5
20260503150246 14 169 9.7 24.1 0.00 0.00 0.00 54 1017.7
20260503140211 12 167 8.0 11.3 0.00 0.00 0.00 62 1018.3
20260503131140 9 153 6.4 16.1 0.00 0.00 0.00 75 1018.3
20260503130638 9 164 11.3 17.7 0.00 0.00 0.00 76 1018.5
20260503130135 8 166 8.0 14.5 0.00 0.00 0.00 76 1018.4
20260503110527 6 163 4.8 8.0 0.00 0.00 0.00 80 1017.9